STARLINK-2557, 48299

Orbit data source: Space-Track

STARLINK-2557, 48299 is a payload satellite owned by SpaceX/Seattle (US) in LEO that was launched on Thu, 29 Apr 2021 UTC via an FALCON 9 launch vehicle from the Air Force Eastern Test Range (AFETR). Payload-class satellites include a variety of spacecraft equipped with specific instruments for various scientific and technological missions. These include communications satellites like Starlink; space stations such as the ISS; scientific satellites like the Hubble; Earth observation satellites from companies like Planet Labs, Umbra, and HawkEye 360; GPS; miniature CubeSats for education and research; and military/defense satellites.

Loading next visibility...
Identifier
48299, 2021-036Z
Orbit
LEO
Country
Flag of USUS
Related business
Manufacturer
SpaceX/Seattle
Mission
Operational Commercial Communications
Bus & Motor
STARLINK, Unknown motor
Mass
260 kg wet, ~248 kg dry
Launch date (UTC)
2021-04-29 (5 years ago)
Launch vehicle
FALCON 9
Launch site
Air Force Eastern Test Range (AFETR)
Object type
Payload
Rocket body
Debris
Shape & HBR
Box + 1 Pan, 10.1 m
Radar Cross Section
13.562 m², Large (>1 m²)

Expand to show TLE details & history
Last TLE update: 4 hours ago

TLE from 4 hours ago
0 STARLINK-2557
1 48299U 21036Z   26036.33335648  .00070199  00000-0  24237-2 0  9992
2 48299  53.1561 225.6462 0001124  90.5168  72.8877 15.29333988  5790
Epoch: 2026-02-05T08:00Z
TLE epoch observation values (Epoch: 2026-02-05T08:00:01.999Z)
Latitude
13.20543°
Longitude
140.081°
Altitude
477.718 km
Speed
7.629 km/s
True Right ascension
02h 22m 18s
True Declination
13° 07' 34"
Sunlit
Object was in daylight at epoch
Visualization orbit readout
Latitude
Unknown
Longitude
Unknown
Altitude
Unknown
Speed
Unknown
Apparent Right ascension
Unknown
Apparent Declination
Unknown
Sunlit
N/A
Visualization observer readout
Local Sidereal Time
13:32:56
Azimuth
Unknown
Elevation
Unknown
Doppler factor
Unknown
Orbital elements
Apogee altitude
478.83 km
Perigee altitude
477.288 km
Semi-major axis
6,856.196 km
Eccentricity
0.00011
Inclination
53.1561°
RAAN
225.6462°
Arg. of periapsis
90.5168°
True anomaly
72.90001°
Mean anomaly
72.8877°
Eccentric anomaly
72.89386°
Mean motion
3.82312 °/min
Orbital period
94.16 mins
BSTAR
0.0024237
Loading maneuver chart data...
Computing Atmospheric mass density...
Loading historical data...
Loading historical data...
Loading historical data...
Loading historical data...
Loading historical data...
Loading historical data...
Loading historical data...

Documentation

Showing up to 5 results
|